sat.trackr.live / text

‹ back to catalog

STARLINK-3389

NORAD 51124 · 2022-005W

PAYLOAD ACTIVE UNKNOWN

§ Identity

Operator
Country
US
Launch date
2022-01-19
Launch site
AFETR
Launch vehicle
Mass (kg)
RCS (m²)

Purposes: comms

External: N2YO · Heavens-Above · Gunter

§ Orbital elements

Epoch: 2026-05-25T04:50:29.205024Z

Period
95.44 min
Inclination
53.2144°
Eccentricity
0.0001280
Mean motion
15.08841414 rev/d
Perigee alt
538.9 km
Apogee alt
540.6 km
Semi-major
6,917.9 km
B*
1.3757e-5
RAAN
315.6442°
Arg perigee
93.9403°
Mean anomaly
266.1735°
Rev number
24,029

§ Raw data

STARLINK-33891 51124U 22005W   26145.20172691 -.00000069  00000+0  13757-4 0  99902 51124  53.2144 315.6442 0001280  93.9403 266.1735 15.08841414240291

JSON: /api/v1/satellites/51124 · /tle

For live sub-satellite position, see the globe view (requires WebGL).

§ Visibility from observer

Set your observer location to see the next 7 days of passes ≥ 10°. The values pass through the URL so the page stays shareable.

No JS? Fill the form by hand. The geolocation button needs JavaScript.